{"data":{"norad_id":62822,"epoch":"2026-09-21T19:32:46.917888Z","epoch_age_seconds":54583,"freshness":"FRESH","line1":"1 62822U 25018S   26264.81443192  .00015617  00000+0  47247-3 0  9994","line2":"2 62822  53.1568 115.2379 0001205 112.1996 247.9134 15.34392769 93253","mean_motion":15.34392769,"eccentricity":0.0001205,"inclination_deg":53.1568,"raan_deg":115.2379,"arg_perigee_deg":112.1996,"mean_anomaly_deg":247.9134,"bstar":0.00047247,"rev_number":9325,"period_min":93.848200349542,"perigee_km":461.90040850863,"apogee_km":463.54905618612,"semimajor_km":6840.8617323474,"source":"CELESTRAK","updated_at":"2026-09-22T09:00:49.669837Z"}}